This is the latest recevied weather packets stored in our database for station/object WA6GRA. If no packets are shown the sender has not sent any weather packets the latest 10 day(s).
| Time | Temp. | Humidity | Pressure | Rain* | Wind** | Luminosity | Snow |
|---|---|---|---|---|---|---|---|
| 1777718780 | 16.11° C | 86% | 1009.9 hPa | 0 mm | - | 0 W/m² | - |
| 1777718175 | 16.11° C | 86% | 1009.9 hPa | 0 mm | - | 0 W/m² | - |
| 1777717575 | 16.11° C | 85% | 1010 hPa | 0 mm | - | 0 W/m² | - |
| 1777716976 | 16.67° C | 85% | 1010.2 hPa | 0 mm | - | 0 W/m² | - |
| 1777716372 | 16.67° C | 84% | 1010.3 hPa | 0 mm | - | 0 W/m² | - |
| 1777715768 | 17.22° C | 82% | 1010.2 hPa | 0 mm | - | 0 W/m² | - |
| 1777715168 | 17.22° C | 81% | 1010.3 hPa | 0 mm | - | 0 W/m² | - |
| 1777714564 | 17.22° C | 81% | 1010.2 hPa | 0 mm | - | 0 W/m² | - |
| 1777713959 | 17.78° C | 80% | 1010.8 hPa | 0 mm | - | 0 W/m² | - |
| 1777713358 | 17.78° C | 80% | 1010.6 hPa | 0 mm | - | 0 W/m² | - |
| 1777712758 | 17.78° C | 80% | 1010.8 hPa | 0 mm | - | 0 W/m² | - |
| 1777712157 | 17.78° C | 80% | 1011 hPa | 0 mm | - | 0 W/m² | - |
| 1777711556 | 17.78° C | 79% | 1010.8 hPa | 0 mm | - | 0 W/m² | - |
| 1777710955 | 18.33° C | 78% | 1011.1 hPa | 0 mm | - | 0 W/m² | - |
| 1777710354 | 18.33° C | 78% | 1011.3 hPa | 0 mm | - | 0 W/m² | - |
| 1777709755 | 19.44° C | 74% | 1011.3 hPa | 0 mm | - | 0 W/m² | - |
| 1777709149 | 19.44° C | 74% | 1011.2 hPa | 0 mm | - | 0 W/m² | - |
| 1777708549 | 18.89° C | 73% | 1011.3 hPa | 0 mm | - | 0 W/m² | - |
| 1777707945 | 19.44° C | 71% | 1011.3 hPa | 0 mm | - | 0 W/m² | - |
| 1777707343 | 19.44° C | 70% | 1011.3 hPa | 0 mm | - | 0 W/m² | - |
| 1777706738 | 20° C | 68% | 1011.2 hPa | 0 mm | - | 0 W/m² | - |
| 1777706134 | 20° C | 68% | 1011.2 hPa | 0 mm | - | 0 W/m² | - |
| 1777705529 | 20.56° C | 65% | 1011.3 hPa | 0 mm | - | 0 W/m² | - |
| 1777704926 | 20.56° C | 64% | 1011 hPa | 0 mm | - | 0 W/m² | - |
| 1777704321 | 21.11° C | 63% | 1010.9 hPa | 0 mm | - | 0 W/m² | - |
* Rain latest hour (hover to see other rain measurements)
** Current wind speed in m/s (hover to see current wind gust speed)